sat.trackr.live / text

‹ back to catalog

GPS BIIF-4 (PRN 27)

NORAD 39166 · 2013-023A

PAYLOAD ACTIVE UNKNOWN

§ Identity

Operator
Country
US
Launch date
2013-05-15
Launch site
AFETR
Launch vehicle
Mass (kg)
RCS (m²)
11.00

Purposes: earth_obs, nav

External: N2YO · Heavens-Above · Gunter

§ Orbital elements

Epoch: 2026-05-24T17:59:53.308320Z

Period
717.98 min
Inclination
54.5230°
Eccentricity
0.0141730
Mean motion
2.00563616 rev/d
Perigee alt
19,805.8 km
Apogee alt
20,558.6 km
Semi-major
26,560.3 km
B*
0.0000e+0
RAAN
269.9280°
Arg perigee
50.9138°
Mean anomaly
310.3242°
Rev number
9,541

§ Raw data

GPS BIIF-4  (PRN 27)1 39166U 13023A   26144.74992255 -.00000075  00000+0  00000+0 0  99952 39166  54.5230 269.9280 0141730  50.9138 310.3242  2.00563616 95417

JSON: /api/v1/satellites/39166 · /tle

For live sub-satellite position, see the globe view (requires WebGL).

§ Visibility from observer

Set your observer location to see the next 7 days of passes ≥ 10°. The values pass through the URL so the page stays shareable.

No JS? Fill the form by hand. The geolocation button needs JavaScript.